TimeCST,TemperatureF,Dew PointF,Humidity,Sea Level PressureIn,VisibilityMPH,Wind Direction,Wind SpeedMPH,Gust SpeedMPH,PrecipitationIn,Events,Conditions,WindDirDegrees,DateUTC
12:15 AM,28.4,21.2,74,30.18,10.0,North,4.6,-,N/A,,Overcast,360,2013-01-16 06:15:00
12:35 AM,30.2,19.4,64,30.17,10.0,Calm,Calm,-,N/A,,Overcast,0,2013-01-16 06:35:00
1:15 AM,28.4,23.0,80,30.16,10.0,North,3.5,-,N/A,,Overcast,350,2013-01-16 07:15:00
1:35 AM,28.4,24.8,86,30.16,10.0,Calm,Calm,-,N/A,,Overcast,0,2013-01-16 07:35:00
1:55 AM,28.4,23.0,80,30.16,10.0,Calm,Calm,-,N/A,,Overcast,0,2013-01-16 07:55:00
2:16 AM,28.4,24.8,86,30.16,10.0,North,3.5,-,N/A,,Overcast,10,2013-01-16 08:16:00
2:35 AM,28.4,24.8,86,30.15,10.0,NNW,5.8,-,N/A,,Overcast,340,2013-01-16 08:35:00
2:55 AM,28.4,24.8,86,30.15,10.0,NW,6.9,-,N/A,,Overcast,320,2013-01-16 08:55:00
3:35 AM,28.4,23.0,80,30.14,10.0,NNW,6.9,-,N/A,,Overcast,330,2013-01-16 09:35:00
3:55 AM,28.4,23.0,80,30.14,10.0,NNW,6.9,-,N/A,,Overcast,330,2013-01-16 09:55:00
4:55 AM,28.4,21.2,74,30.16,10.0,NW,8.1,-,N/A,,Overcast,310,2013-01-16 10:55:00
5:35 AM,28.4,21.2,74,30.17,10.0,NW,9.2,-,N/A,,Overcast,310,2013-01-16 11:35:00
5:56 AM,28.4,21.2,74,30.18,10.0,NW,8.1,-,N/A,,Overcast,310,2013-01-16 11:56:00
6:35 AM,26.6,19.4,74,30.17,10.0,NNW,8.1,-,N/A,,Scattered Clouds,330,2013-01-16 12:35:00
7:15 AM,23.0,19.4,86,30.16,10.0,NNW,9.2,-,N/A,,Clear,330,2013-01-16 13:15:00
7:35 AM,21.2,19.4,93,30.16,10.0,NNW,8.1,-,N/A,,Clear,330,2013-01-16 13:35:00
7:55 AM,23.0,19.4,86,30.17,10.0,NW,9.2,-,N/A,,Clear,310,2013-01-16 13:55:00
8:35 AM,24.8,19.4,80,30.20,10.0,WNW,4.6,-,N/A,,Clear,290,2013-01-16 14:35:00
8:55 AM,24.8,19.4,80,30.22,10.0,West,3.5,-,N/A,,Clear,280,2013-01-16 14:55:00
9:15 AM,24.8,19.4,80,30.23,10.0,Calm,Calm,-,N/A,,Clear,0,2013-01-16 15:15:00
9:36 AM,24.8,19.4,80,30.21,10.0,West,4.6,-,N/A,,Clear,280,2013-01-16 15:36:00
9:55 AM,24.8,19.4,80,30.21,10.0,WNW,6.9,-,N/A,,Clear,300,2013-01-16 15:55:00
10:15 AM,26.6,19.4,74,30.21,10.0,WNW,6.9,-,N/A,,Clear,300,2013-01-16 16:15:00
10:35 AM,26.6,21.2,80,30.19,10.0,NW,6.9,-,N/A,,Clear,320,2013-01-16 16:35:00
11:15 AM,28.4,21.2,74,30.17,10.0,NNW,6.9,-,N/A,,Clear,330,2013-01-16 17:15:00
11:35 AM,28.4,19.4,69,30.16,10.0,NNE,3.5,-,N/A,,Clear,20,2013-01-16 17:35:00
11:55 AM,30.2,21.2,69,30.15,10.0,ENE,3.5,-,N/A,,Clear,70,2013-01-16 17:55:00
12:15 PM,30.2,21.2,69,30.15,10.0,ESE,3.5,-,N/A,,Clear,120,2013-01-16 18:15:00
12:36 PM,30.2,21.2,69,30.15,10.0,SE,4.6,-,N/A,,Clear,130,2013-01-16 18:36:00
12:55 PM,30.2,21.2,69,30.14,10.0,SSE,5.8,-,N/A,,Clear,150,2013-01-16 18:55:00
1:15 PM,30.2,21.2,69,30.14,10.0,South,6.9,-,N/A,,Clear,170,2013-01-16 19:15:00
2:15 PM,32.0,21.2,64,30.14,10.0,SSE,8.1,-,N/A,,Clear,150,2013-01-16 20:15:00
2:35 PM,33.8,21.2,60,30.13,10.0,SSE,8.1,-,N/A,,Clear,160,2013-01-16 20:35:00
2:56 PM,33.8,19.4,56,30.14,10.0,South,8.1,-,N/A,,Clear,170,2013-01-16 20:56:00
3:15 PM,33.8,21.2,60,30.13,10.0,South,6.9,-,N/A,,Clear,170,2013-01-16 21:15:00
3:35 PM,33.8,19.4,56,30.13,10.0,South,5.8,-,N/A,,Clear,190,2013-01-16 21:35:00
3:55 PM,33.8,21.2,60,30.13,10.0,South,6.9,-,N/A,,Clear,180,2013-01-16 21:55:00
4:15 PM,32.0,19.4,60,30.14,10.0,South,5.8,-,N/A,,Clear,190,2013-01-16 22:15:00
4:35 PM,32.0,19.4,60,30.14,10.0,South,4.6,-,N/A,,Clear,180,2013-01-16 22:35:00
4:55 PM,28.4,17.6,64,30.15,10.0,South,6.9,-,N/A,,Clear,170,2013-01-16 22:55:00
5:35 PM,28.4,19.4,69,30.15,10.0,South,6.9,-,N/A,,Clear,180,2013-01-16 23:35:00
5:55 PM,28.4,19.4,69,30.16,10.0,SSW,6.9,-,N/A,,Clear,210,2013-01-16 23:55:00
6:15 PM,28.4,21.2,74,30.16,10.0,SSW,4.6,-,N/A,,Clear,210,2013-01-17 00:15:00
6:36 PM,28.4,19.4,69,30.16,10.0,SSW,4.6,-,N/A,,Clear,200,2013-01-17 00:36:00
6:55 PM,28.4,19.4,69,30.16,10.0,SSW,4.6,-,N/A,,Clear,200,2013-01-17 00:55:00
7:15 PM,26.6,19.4,74,30.16,10.0,SSW,3.5,-,N/A,,Clear,200,2013-01-17 01:15:00
7:35 PM,26.6,21.2,80,30.16,10.0,Calm,Calm,-,N/A,,Clear,0,2013-01-17 01:35:00
7:55 PM,24.8,19.4,80,30.16,10.0,WNW,3.5,-,N/A,,Clear,300,2013-01-17 01:55:00
8:15 PM,23.0,19.4,86,30.16,10.0,WNW,3.5,-,N/A,,Clear,290,2013-01-17 02:15:00
8:35 PM,21.2,15.8,80,30.16,10.0,Calm,Calm,-,N/A,,Clear,0,2013-01-17 02:35:00
9:15 PM,24.8,21.2,86,30.16,10.0,SW,3.5,-,N/A,,Clear,220,2013-01-17 03:15:00
9:55 PM,23.0,17.6,80,30.16,10.0,SSW,4.6,-,N/A,,Clear,200,2013-01-17 03:55:00
10:16 PM,19.4,19.4,100,30.17,10.0,SSE,8.1,-,N/A,,Clear,150,2013-01-17 04:16:00
10:35 PM,21.2,19.4,93,30.16,10.0,South,5.8,-,N/A,,Clear,180,2013-01-17 04:35:00
10:55 PM,23.0,19.4,86,30.17,10.0,SSW,5.8,-,N/A,,Clear,210,2013-01-17 04:55:00
11:35 PM,24.8,19.4,80,30.18,10.0,Calm,Calm,-,N/A,,Clear,0,2013-01-17 05:35:00
11:55 PM,19.4,15.8,86,30.18,10.0,Calm,Calm,-,N/A,,Clear,0,2013-01-17 05:55:00